Hollywood, FL

12:59 AM EDT on September 24, 2017 (GMT -0400)
North Perry

Weather History for KHWO - January, 2013

Change the Weather History Date:

Friday, January 18, 2013

  Actual Average (KFLL) Record (KFLL)
Temperature  
Mean Temperature 62 °F -  
Max Temperature 70 °F 74 °F 86 °F (1925)
Min Temperature 54 °F 56 °F 33 °F (1977)
Degree Days  
Heating Degree Days 3    
Growing Degree Days 12 (Base 50)    
Moisture  
Dew Point 51 °F    
Average Humidity 67    
Maximum Humidity 80    
Minimum Humidity 56    
Precipitation  
Precipitation 0.00 in - - ()
Sea Level Pressure  
Sea Level Pressure 30.20 in    
Wind  
Wind Speed 9 mph (North)    
Max Wind Speed 14 mph    
Max Gust Speed 20 mph    
Visibility 10 miles    
Events      
Averages and records for this station are not official NWS values.
T = Trace of Precipitation, MM = Missing Value Source: NWS Daily Summary

Daily Weather History Graph

Daily Weather History Graph

Search for Another Location

Airport or City:

Trip Planner

Search our weather history database for the weather conditions in past years. The results will help you decide how hot, cold, wet, or windy it might be!

Date:

Astronomy

Jan. 18, 2013 Rise Set
Actual Time 7:09 AM EST 5:53 PM EST
Civil Twilight 6:44 AM EST 6:18 PM EST
Nautical Twilight 6:16 AM EST 6:46 PM EST
Astronomical Twilight 5:48 AM EST 7:14 PM EST
Moon 11:35 AM EST (1/18) No Moon Set
Length of Visible Light 11h 33m
Length of Day
10h 44m
Waxing Crescent, 47% of the Moon is Illuminated
Jan 18
Waxing Crescent
Jan 18
First Quarter
Jan 26
Full
Feb 3
Last Quarter
Feb 10
New

Hourly Weather History & Observations

Time (EST) Temp. Dew Point Humidity Pressure Visibility Wind Dir Wind Speed Gust Speed Precip Events Conditions
12:53 AM 59.0 °F 50.0 °F 72% 30.14 in 10.0 mi WNW 10.4 mph - N/A   Clear
1:53 AM 59.0 °F 48.9 °F 69% 30.14 in 10.0 mi NW 10.4 mph 19.6 mph N/A   Clear
2:53 AM 57.9 °F 48.9 °F 72% 30.14 in 10.0 mi NW 11.5 mph - N/A   Clear
3:53 AM 57.0 °F 48.0 °F 72% 30.15 in 10.0 mi NW 11.5 mph - N/A   Clear
4:53 AM 55.9 °F 46.9 °F 72% 30.16 in 10.0 mi NW 13.8 mph - N/A   Clear
5:53 AM 55.0 °F 46.9 °F 74% 30.18 in 10.0 mi WNW 8.1 mph - N/A   Clear
6:53 AM 54.0 °F 48.0 °F 80% 30.20 in 10.0 mi WNW 5.8 mph - N/A   Mostly Cloudy
7:53 AM 55.0 °F 48.0 °F 77% 30.23 in 10.0 mi North 8.1 mph - N/A   Overcast
8:53 AM 55.9 °F 46.0 °F 69% 30.25 in 10.0 mi NW 10.4 mph - N/A   Overcast
9:53 AM 55.9 °F 45.0 °F 67% 30.27 in 10.0 mi NNW 11.5 mph - N/A   Overcast
10:53 AM 57.0 °F 46.9 °F 69% 30.27 in 10.0 mi NNW 6.9 mph - N/A   Overcast
11:53 AM 61.0 °F 48.9 °F 64% 30.24 in 10.0 mi Variable 5.8 mph - N/A   Overcast
12:41 PM 64.4 °F 48.2 °F 56% 30.22 in 10.0 mi Variable 3.5 mph - N/A   Mostly Cloudy
12:53 PM 62.1 °F 48.9 °F 62% 30.21 in 10.0 mi Variable 4.6 mph - N/A   Overcast
1:03 PM 64.4 °F 50.0 °F 59% 30.20 in 10.0 mi Calm Calm - N/A   Overcast
1:53 PM 66.0 °F 50.0 °F 56% 30.18 in 10.0 mi NNE 6.9 mph - N/A   Overcast
2:53 PM 66.9 °F 51.1 °F 57% 30.17 in 10.0 mi NE 4.6 mph - N/A   Overcast
3:53 PM 66.9 °F 53.1 °F 61% 30.18 in 10.0 mi NE 5.8 mph - N/A   Overcast
4:53 PM 68.0 °F 57.9 °F 70% 30.19 in 10.0 mi NE 9.2 mph - N/A   Overcast
5:53 PM 68.0 °F 59.0 °F 73% 30.19 in 10.0 mi ENE 4.6 mph - 0.00 in   Overcast
6:53 PM 69.1 °F 57.0 °F 65% 30.20 in 10.0 mi ENE 8.1 mph - N/A   Overcast
7:53 PM 70.0 °F 57.0 °F 63% 30.21 in 10.0 mi ENE 8.1 mph - N/A   Mostly Cloudy
8:53 PM 70.0 °F 57.0 °F 63% 30.21 in 10.0 mi ENE 11.5 mph - N/A   Overcast
9:53 PM 70.0 °F 57.9 °F 65% 30.22 in 10.0 mi ENE 12.7 mph - 0.00 in   Overcast
10:53 PM 70.0 °F 55.9 °F 61% 30.21 in 10.0 mi ENE 5.8 mph - N/A   Overcast
11:53 PM 70.0 °F 55.9 °F 61% 30.20 in 10.0 mi ENE 5.8 mph - N/A   Overcast